EAG3839 SBCX-SBSP

Flight info

Callsign EAG3839
Flight time 1h 6m
Altitude 37000
Route ANLER UM540 ANISE
Aircraft B738/M-SDE2E3FGHIRWXY/LB1

Departure

Time 2026-04-20 22:57
Airport Hugo Cantergiani Regional Airport (SBCX)

Arrival

Time 2026-04-21 00:03
Airport Congonhas–Deputado Freitas Nobre Airport (SBSP)
Time Latitude Longitude Altitude Speed Heading
2026-04-20 22:40 -29.19546 -51.18723 2464 ft 0 kts 46°
2026-04-20 22:47 -29.19553 -51.18732 2466 ft 3 kts 54°
2026-04-20 22:47 -29.19562 -51.18750 2467 ft 3 kts 84°
2026-04-20 22:47 -29.19561 -51.18768 2464 ft 3 kts 141°
2026-04-20 22:47 -29.19557 -51.18772 2464 ft 0 kts 183°
2026-04-20 22:53 -29.19560 -51.18774 2464 ft 0 kts 199°
2026-04-20 22:53 -29.19572 -51.18786 2469 ft 3 kts 232°
2026-04-20 22:53 -29.19583 -51.18800 2465 ft 3 kts 225°
2026-04-20 22:53 -29.19610 -51.18839 2467 ft 9 kts 251°
2026-04-20 22:54 -29.19576 -51.18917 2465 ft 13 kts 315°
2026-04-20 22:54 -29.19512 -51.18988 2469 ft 13 kts 316°
2026-04-20 22:54 -29.19446 -51.19062 2463 ft 15 kts 316°
2026-04-20 22:54 -29.19369 -51.19146 2464 ft 16 kts 316°
2026-04-20 22:55 -29.19293 -51.19230 2466 ft 15 kts 316°
2026-04-20 22:55 -29.19220 -51.19311 2466 ft 14 kts 316°
2026-04-20 22:55 -29.19151 -51.19387 2469 ft 14 kts 307°
2026-04-20 22:55 -29.19122 -51.19442 2469 ft 3 kts
2026-04-20 22:56 -29.19122 -51.19423 2469 ft 3 kts 124°
2026-04-20 22:56 -29.19132 -51.19409 2471 ft 0 kts 131°
2026-04-20 22:56 -29.19135 -51.19405 2471 ft 1 kts 131°
2026-04-20 22:56 -29.19161 -51.19376 2467 ft 28 kts 136°
2026-04-20 22:57 -29.19512 -51.18987 2468 ft 113 kts 136°
2026-04-20 22:57 -29.20269 -51.18154 2510 ft 184 kts 136°
2026-04-20 22:57 -29.21246 -51.17036 3235 ft 202 kts 135°
2026-04-20 22:57 -29.22259 -51.15969 4530 ft 191 kts 138°
2026-04-20 22:58 -29.23226 -51.15022 5836 ft 181 kts 136°
2026-04-20 22:58 -29.24207 -51.13907 6263 ft 214 kts 134°
2026-04-20 22:58 -29.25305 -51.12648 6465 ft 240 kts 135°
2026-04-20 22:58 -29.26506 -51.11145 6646 ft 263 kts 120°
2026-04-20 22:59 -29.26930 -51.09098 7029 ft 273 kts 84°
2026-04-20 22:59 -29.26353 -51.07052 7667 ft 270 kts 64°
2026-04-20 22:59 -29.25588 -51.05098 8257 ft 274 kts 63°
2026-04-20 22:59 -29.24805 -51.03095 8861 ft 276 kts 63°
2026-04-20 23:00 -29.24029 -51.01074 9488 ft 277 kts 64°
2026-04-20 23:00 -29.23256 -50.99023 10009 ft 284 kts 64°
2026-04-20 23:00 -29.22473 -50.96917 10534 ft 290 kts 64°
2026-04-20 23:00 -29.21682 -50.94767 11149 ft 296 kts 64°
2026-04-20 23:01 -29.20884 -50.92582 12025 ft 296 kts 64°
2026-04-20 23:01 -29.20099 -50.90426 12888 ft 299 kts 64°
2026-04-20 23:01 -29.19294 -50.88210 13681 ft 303 kts 64°
2026-04-20 23:01 -29.18480 -50.85968 14406 ft 307 kts 64°
2026-04-20 23:02 -29.17653 -50.83690 15129 ft 311 kts 64°
2026-04-20 23:02 -29.16816 -50.81383 15850 ft 315 kts 64°
2026-04-20 23:02 -29.15968 -50.79047 16550 ft 320 kts 64°
2026-04-20 23:02 -29.15058 -50.76704 17270 ft 324 kts 59°
2026-04-20 23:03 -29.13976 -50.74437 17974 ft 327 kts 56°
2026-04-20 23:03 -29.12827 -50.72180 18685 ft 329 kts 55°
2026-04-20 23:03 -29.11662 -50.69915 19362 ft 331 kts 55°
2026-04-20 23:03 -29.10496 -50.67635 20052 ft 333 kts 55°
2026-04-20 23:04 -29.09315 -50.65310 20457 ft 346 kts 56°
2026-04-20 23:04 -29.08072 -50.62855 20577 ft 367 kts 56°
2026-04-20 23:04 -29.06769 -50.60261 20723 ft 386 kts 57°
2026-04-20 23:04 -29.05434 -50.57590 21045 ft 396 kts 57°
2026-04-20 23:05 -29.04062 -50.54833 21622 ft 400 kts 57°
2026-04-20 23:05 -29.02688 -50.52065 22272 ft 401 kts 57°
2026-04-20 23:05 -29.01309 -50.49290 22897 ft 403 kts 57°
2026-04-20 23:05 -28.99916 -50.46489 23465 ft 406 kts 57°
2026-04-20 23:06 -28.98513 -50.43673 23951 ft 409 kts 57°
2026-04-20 23:06 -28.97096 -50.40833 24310 ft 415 kts 57°
2026-04-20 23:06 -28.95650 -50.37940 24607 ft 422 kts 57°
2026-04-20 23:06 -28.94192 -50.35021 25042 ft 425 kts 57°
2026-04-20 23:07 -28.92716 -50.32069 25447 ft 430 kts 57°
2026-04-20 23:07 -28.91227 -50.29092 25829 ft 434 kts 57°
2026-04-20 23:07 -28.89723 -50.26088 26186 ft 438 kts 57°
2026-04-20 23:07 -28.88209 -50.23064 26633 ft 439 kts 57°
2026-04-20 23:08 -28.86692 -50.20038 27140 ft 439 kts 57°
2026-04-20 23:08 -28.85171 -50.17006 27595 ft 441 kts 57°
2026-04-20 23:08 -28.83661 -50.14000 28016 ft 444 kts 57°
2026-04-20 23:08 -28.82123 -50.10939 28526 ft 444 kts 57°
2026-04-20 23:09 -28.80588 -50.07885 29053 ft 444 kts 57°
2026-04-20 23:09 -28.79052 -50.04832 29576 ft 444 kts 57°
2026-04-20 23:09 -28.77509 -50.01769 30055 ft 445 kts 57°
2026-04-20 23:09 -28.75965 -49.98705 30496 ft 445 kts 57°
2026-04-20 23:10 -28.74420 -49.95639 30958 ft 444 kts 58°
2026-04-20 23:10 -28.72882 -49.92591 31406 ft 443 kts 57°
2026-04-20 23:10 -28.71349 -49.89556 31847 ft 442 kts 57°
2026-04-20 23:10 -28.69640 -49.86655 32202 ft 440 kts 48°
2026-04-20 23:11 -28.67569 -49.84113 32576 ft 437 kts 38°
2026-04-20 23:11 -28.65229 -49.82003 33012 ft 433 kts 32°
2026-04-20 23:11 -28.62808 -49.79965 33518 ft 432 kts 34°
2026-04-20 23:11 -28.60388 -49.77924 33975 ft 431 kts 32°
2026-04-20 23:12 -28.57949 -49.75930 34294 ft 432 kts 32°
2026-04-20 23:12 -28.55512 -49.73928 34566 ft 433 kts 32°
2026-04-20 23:12 -28.53071 -49.71893 34764 ft 437 kts 32°
2026-04-20 23:12 -28.50628 -49.69834 35074 ft 437 kts 32°
2026-04-20 23:13 -28.48188 -49.67772 35436 ft 436 kts 32°
2026-04-20 23:13 -28.45751 -49.65715 35754 ft 436 kts 32°
2026-04-20 23:13 -28.43310 -49.63667 36018 ft 437 kts 31°
2026-04-20 23:13 -28.40858 -49.61616 36271 ft 438 kts 31°
2026-04-20 23:14 -28.38407 -49.59565 36579 ft 437 kts 31°
2026-04-20 23:14 -28.36788 -49.58211 36795 ft 437 kts 31°
2026-04-20 23:14 -28.33512 -49.55471 37124 ft 438 kts 31°
2026-04-20 23:14 -28.31881 -49.54108 37147 ft 442 kts 31°
2026-04-20 23:15 -28.26031 -49.49219 37152 ft 455 kts 31°
2026-04-20 23:15 -28.21703 -49.45610 37144 ft 465 kts 32°
2026-04-20 23:16 -28.16426 -49.41220 37150 ft 475 kts 31°
2026-04-20 23:16 -28.11067 -49.36772 37139 ft 486 kts 32°
2026-04-20 23:17 -28.05568 -49.32176 37139 ft 496 kts 32°
2026-04-20 23:17 -28.00006 -49.27439 37131 ft 502 kts 33°
2026-04-20 23:18 -27.94423 -49.22687 37149 ft 503 kts 33°
2026-04-20 23:18 -27.88810 -49.17933 37142 ft 504 kts 33°
2026-04-20 23:19 -27.83171 -49.13327 37130 ft 503 kts 31°
2026-04-20 23:19 -27.77449 -49.08795 37137 ft 502 kts 31°
2026-04-20 23:20 -27.71751 -49.04247 37133 ft 500 kts 32°
2026-04-20 23:20 -27.66117 -48.99652 37136 ft 499 kts 33°
2026-04-20 23:21 -27.60536 -48.95008 37141 ft 497 kts 32°
2026-04-20 23:21 -27.54954 -48.90405 37122 ft 495 kts 33°
2026-04-20 23:22 -27.49395 -48.85836 37135 ft 495 kts 33°
2026-04-20 23:22 -27.43821 -48.81259 37133 ft 503 kts 33°
2026-04-20 23:23 -27.38140 -48.76593 37130 ft 507 kts 33°
2026-04-20 23:23 -27.32426 -48.71903 37112 ft 509 kts 33°
2026-04-20 23:24 -27.26699 -48.67210 37099 ft 509 kts 33°
2026-04-20 23:24 -27.21012 -48.62481 37107 ft 508 kts 34°
2026-04-20 23:25 -27.15327 -48.57766 37108 ft 507 kts 33°
2026-04-20 23:25 -27.09607 -48.53152 37105 ft 506 kts 33°
2026-04-20 23:26 -27.03899 -48.48548 37105 ft 505 kts 33°
2026-04-20 23:26 -26.98203 -48.43949 37104 ft 504 kts 33°
2026-04-20 23:27 -26.92500 -48.39349 37097 ft 504 kts 33°
2026-04-20 23:27 -26.86851 -48.34799 37103 ft 503 kts 33°
2026-04-20 23:28 -26.81126 -48.30193 37104 ft 503 kts 33°
2026-04-20 23:28 -26.75482 -48.25657 37104 ft 503 kts 33°
2026-04-20 23:29 -26.69786 -48.21085 37101 ft 503 kts 33°
2026-04-20 23:29 -26.64101 -48.16511 37101 ft 503 kts 33°
2026-04-20 23:30 -26.58426 -48.11945 37104 ft 503 kts 33°
2026-04-20 23:30 -26.52745 -48.07380 37103 ft 503 kts 33°
2026-04-20 23:31 -26.47054 -48.02814 37103 ft 503 kts 33°
2026-04-20 23:31 -26.41364 -47.98255 37096 ft 503 kts 33°
2026-04-20 23:32 -26.35670 -47.93697 37103 ft 503 kts 33°
2026-04-20 23:32 -26.29979 -47.89147 37097 ft 504 kts 33°
2026-04-20 23:33 -26.24317 -47.84619 37103 ft 504 kts 33°
2026-04-20 23:33 -26.18618 -47.80064 37098 ft 504 kts 34°
2026-04-20 23:34 -26.12918 -47.75515 37099 ft 504 kts 34°
2026-04-20 23:34 -26.07209 -47.70975 37099 ft 504 kts 33°
2026-04-20 23:35 -25.98636 -47.64179 37089 ft 504 kts 34°
2026-04-20 23:36 -25.92966 -47.59688 37096 ft 503 kts 34°
2026-04-20 23:36 -25.87262 -47.55173 37095 ft 503 kts 34°
2026-04-20 23:37 -25.81550 -47.50658 37097 ft 503 kts 34°
2026-04-20 23:37 -25.75843 -47.46153 37103 ft 503 kts 34°
2026-04-20 23:38 -25.70132 -47.41650 37103 ft 503 kts 34°
2026-04-20 23:38 -25.64424 -47.37154 37093 ft 503 kts 34°
2026-04-20 23:39 -25.58750 -47.32690 37102 ft 503 kts 34°
2026-04-20 23:39 -25.53036 -47.28201 37103 ft 503 kts 34°
2026-04-20 23:40 -25.47333 -47.23726 37094 ft 503 kts 34°
2026-04-20 23:40 -25.41625 -47.19251 37105 ft 503 kts 34°
2026-04-20 23:41 -25.35914 -47.14780 37098 ft 503 kts 34°
2026-04-20 23:41 -25.30208 -47.10317 37107 ft 502 kts 34°
2026-04-20 23:42 -25.24501 -47.05859 37107 ft 502 kts 34°
2026-04-20 23:42 -25.18814 -47.01420 37104 ft 502 kts 34°
2026-04-20 23:43 -25.13071 -46.97015 37094 ft 502 kts 31°
2026-04-20 23:43 -25.07090 -46.93034 37110 ft 501 kts 29°
2026-04-20 23:44 -25.01053 -46.89165 37102 ft 501 kts 29°
2026-04-20 23:44 -24.95033 -46.85262 37108 ft 502 kts 29°
2026-04-20 23:45 -24.89032 -46.81333 37107 ft 502 kts 29°
2026-04-20 23:45 -24.83106 -46.77450 37078 ft 486 kts 29°
2026-04-20 23:45 -24.80266 -46.75589 37070 ft 463 kts 29°
2026-04-20 23:46 -24.77558 -46.73818 37066 ft 443 kts 29°
2026-04-20 23:46 -24.74949 -46.72113 36971 ft 431 kts 29°
2026-04-20 23:46 -24.72366 -46.70429 36774 ft 434 kts 29°
2026-04-20 23:46 -24.69729 -46.68712 36577 ft 447 kts 29°
2026-04-20 23:47 -24.67018 -46.66946 36378 ft 459 kts 29°
2026-04-20 23:47 -24.64236 -46.65133 36156 ft 472 kts 29°
2026-04-20 23:47 -24.61334 -46.63365 35772 ft 477 kts 20°
2026-04-20 23:47 -24.58157 -46.62428 35399 ft 469 kts
2026-04-20 23:48 -24.54932 -46.62337 35006 ft 463 kts 356°
2026-04-20 23:48 -24.51702 -46.62412 34437 ft 464 kts 355°
2026-04-20 23:48 -24.48477 -46.62497 33868 ft 463 kts 356°
2026-04-20 23:48 -24.45257 -46.62547 33261 ft 462 kts 357°
2026-04-20 23:49 -24.42087 -46.62565 32672 ft 460 kts 358°
2026-04-20 23:49 -24.38889 -46.62569 32091 ft 458 kts 358°
2026-04-20 23:49 -24.35704 -46.62568 31521 ft 456 kts 358°
2026-04-20 23:49 -24.32535 -46.62567 30959 ft 454 kts 358°
2026-04-20 23:50 -24.29382 -46.62568 30418 ft 452 kts 358°
2026-04-20 23:50 -24.26242 -46.62570 29775 ft 450 kts 358°
2026-04-20 23:50 -24.23106 -46.62572 28963 ft 451 kts 358°
2026-04-20 23:50 -24.20007 -46.62575 28207 ft 451 kts 358°
2026-04-20 23:51 -24.16833 -46.62577 27458 ft 450 kts 358°
2026-04-20 23:51 -24.13742 -46.62579 26737 ft 449 kts 359°
2026-04-20 23:51 -24.10613 -46.62581 26027 ft 448 kts 359°
2026-04-20 23:51 -24.07504 -46.62583 25342 ft 447 kts 359°
2026-04-20 23:52 -24.04406 -46.62584 24655 ft 439 kts 359°
2026-04-20 23:52 -24.01383 -46.62586 23897 ft 430 kts 359°
2026-04-20 23:52 -23.98410 -46.62588 22970 ft 424 kts 359°
2026-04-20 23:52 -23.95478 -46.62590 22034 ft 419 kts 360°
2026-04-20 23:53 -23.92576 -46.62592 21130 ft 414 kts
2026-04-20 23:53 -23.89705 -46.62594 20249 ft 410 kts
2026-04-20 23:53 -23.86848 -46.62669 19067 ft 414 kts 353°
2026-04-20 23:53 -23.84077 -46.63596 17752 ft 422 kts 333°
2026-04-20 23:54 -23.81577 -46.65286 16424 ft 424 kts 326°
2026-04-20 23:54 -23.79119 -46.67079 15124 ft 426 kts 326°
2026-04-20 23:54 -23.76639 -46.68853 13855 ft 426 kts 327°
2026-04-20 23:54 -23.74147 -46.70596 12475 ft 424 kts 327°
2026-04-20 23:55 -23.71666 -46.72312 11293 ft 419 kts 327°
2026-04-20 23:55 -23.69247 -46.73983 10447 ft 405 kts 327°
2026-04-20 23:55 -23.66918 -46.75595 9791 ft 388 kts 327°
2026-04-20 23:55 -23.64700 -46.77131 9409 ft 366 kts 327°
2026-04-20 23:56 -23.62626 -46.78567 9248 ft 341 kts 327°
2026-04-20 23:56 -23.60698 -46.79877 9099 ft 320 kts 327°
2026-04-20 23:56 -23.59071 -46.81415 8837 ft 303 kts 305°
2026-04-20 23:56 -23.57938 -46.83283 8583 ft 289 kts 302°
2026-04-20 23:57 -23.56621 -46.84894 8229 ft 284 kts 325°
2026-04-20 23:57 -23.54831 -46.85695 7891 ft 276 kts 353°
2026-04-20 23:57 -23.52967 -46.85517 7574 ft 267 kts 22°
2026-04-20 23:57 -23.51440 -46.84455 7194 ft 259 kts 47°
2026-04-20 23:58 -23.50323 -46.83002 6857 ft 241 kts 56°
2026-04-20 23:58 -23.49424 -46.81542 6446 ft 225 kts 68°
2026-04-20 23:58 -23.49043 -46.79944 5956 ft 213 kts 90°
2026-04-20 23:58 -23.49067 -46.78362 5480 ft 205 kts 98°
2026-04-20 23:59 -23.49511 -46.76923 4993 ft 201 kts 117°
2026-04-20 23:59 -23.50236 -46.75658 4712 ft 188 kts 133°
2026-04-20 23:59 -23.51089 -46.74696 4669 ft 172 kts 138°
2026-04-20 23:59 -23.51982 -46.73878 4694 ft 166 kts 140°
2026-04-21 00:00 -23.52497 -46.72815 4674 ft 159 kts 100°
2026-04-21 00:00 -23.52869 -46.71682 4528 ft 157 kts 135°
2026-04-21 00:00 -23.53822 -46.71293 4384 ft 144 kts 172°
2026-04-21 00:00 -23.54752 -46.71091 4277 ft 129 kts 158°
2026-04-21 00:01 -23.55512 -46.70597 4039 ft 131 kts 146°
2026-04-21 00:01 -23.56293 -46.70070 3929 ft 130 kts 149°
2026-04-21 00:01 -23.57069 -46.69567 3837 ft 129 kts 146°
2026-04-21 00:01 -23.57803 -46.69030 3712 ft 127 kts 145°
2026-04-21 00:02 -23.58299 -46.68673 3605 ft 130 kts 146°
2026-04-21 00:02 -23.59073 -46.68152 3392 ft 133 kts 147°
2026-04-21 00:02 -23.59850 -46.67596 3199 ft 134 kts 146°
2026-04-21 00:02 -23.60629 -46.67059 3018 ft 132 kts 148°
2026-04-21 00:03 -23.61396 -46.66522 2818 ft 129 kts 148°
2026-04-21 00:03 -23.62138 -46.66010 2632 ft 122 kts 146°
2026-04-21 00:03 -23.62738 -46.65596 2606 ft 60 kts 148°
2026-04-21 00:03 -23.62842 -46.65525 2607 ft 4 kts 148°
2026-04-21 00:04 -23.62878 -46.65508 2607 ft 7 kts 167°
2026-04-21 00:04 -23.62927 -46.65532 2604 ft 10 kts 237°
2026-04-21 00:04 -23.62906 -46.65592 2602 ft 10 kts 331°
2026-04-21 00:04 -23.62845 -46.65631 2602 ft 10 kts 328°
2026-04-21 00:05 -23.62786 -46.65671 2602 ft 10 kts 328°
2026-04-21 00:05 -23.62724 -46.65713 2601 ft 11 kts 328°
2026-04-21 00:05 -23.62657 -46.65760 2601 ft 12 kts 327°
2026-04-21 00:05 -23.62588 -46.65809 2601 ft 12 kts 327°
2026-04-21 00:06 -23.62520 -46.65857 2601 ft 12 kts 328°
2026-04-21 00:06 -23.62452 -46.65903 2600 ft 11 kts 328°
2026-04-21 00:06 -23.62402 -46.65938 2600 ft 5 kts 328°
2026-04-21 00:06 -23.62382 -46.65967 2599 ft 5 kts 264°
2026-04-21 00:07 -23.62404 -46.65999 2599 ft 5 kts 236°
2026-04-21 00:07 -23.62417 -46.66022 2599 ft 2 kts 237°
2026-04-21 00:07 -23.62419 -46.66024 2599 ft 0 kts 237°
2026-04-21 00:07 -23.62420 -46.66026 2599 ft 0 kts 237°